Location: Biltmore Gardens
(41.6070°N, 83.4666°W)
Time: 14:03:26
(UTC+00:00)

Cosmos 1190 Rocket - Pass Details

Date: 14 July 2020
Orbit: 756 x 781 km, 74.1° (Epoch: 04 August)

Event Time Altitude Azimuth Distance (km) Brightness Sun altitude
Exits shadow 07:07:26 57° 160° (SSE) 898 4.0 -23.6°
Maximum altitude 07:08:20 69° 106° (ESE) 817 4.0 -23.6°
Drops below altitude 10° 07:13:33 10° 24° (NNE) 2,314 7.6 -23.2°
Sets 07:15:57 0° 23° (NNE) 3,249 8.7 -23.0°
